GEO-KOMPSAT-2A

Last updated on June 17, 2019, 3:36 a.m. UTC

1 43823U 18100A   19167.87871031 -.00000351  00000-0  00000+0 0  9998
2 43823   0.0341 158.6602 0002424 283.5481 267.2227  1.00271499  2015
UTC
Height (km)
Latitude
Longitude
Inclination
Orbital Period
UTC large
Height (km)
Speed (km/s)
/
Latitude / Longitude
Inclination (degrees)
Orbital Period (minutes)
Azimuth
Elevation
Range (km)
Doppler Factor
iOS Compass Heading
iOS Angle

Next 30 passes for location: Hong Kong

Rise time Rise Azimuth (degrees) Set time Set Azimuth (degrees) Duration Max altitude (degrees)

No matching passes for this satellites